Weather History for Flagstaff, AZ

Change the Weather History Date:

Sunday, May 26, 2013

  Actual Average Record
Temperature  
Mean Temperature 54 °F 54 °F  
Max Temperature 71 °F 71 °F 87 °F (1951)
Min Temperature 36 °F 37 °F 19 °F (1916)
Degree Days  
Heating Degree Days 11 11  
Month to date heating degree days 369 365  
Since 1 July heating degree days 6612 6721  
Cooling Degree Days 0 0  
Month to date cooling degree days 0 0  
Year to date cooling degree days 0 0  
Growing Degree Days 4 (Base 50)    
Moisture  
Dew Point 14 °F    
Average Humidity 25    
Maximum Humidity 40    
Minimum Humidity 10    
Precipitation  
Precipitation 0.00 in 0.02 in 0.75 in (1992)
Month to date precipitation 0.23 0.53  
Year to date precipitation 5.23 8.01  
Snow  
Snow 0.00 in 0.00 in T in (1993)
Month to date snowfall T 0.7  
Since 1 July snowfall 69.7 101.7  
Snow Depth 0.00 in    
Sea Level Pressure  
Sea Level Pressure 29.92 in    
Wind  
Wind Speed 11 mph (SW)    
Max Wind Speed 25 mph    
Max Gust Speed 32 mph    
Visibility 10 miles    
Events      
T = Trace of Precipitation, MM = Missing Value Source: NWS Daily Summary

Daily Weather History Graph

Daily Weather History Graph

Search for Another Location

Airport:

Trip Planner

Search our weather history database for the weather conditions in past years. The results will help you decide how hot, cold, wet, or windy it might be!

Date:

Astronomy

May. 26, 2013 Rise Set
Actual Time 5:15 AM MST 7:32 PM MST
Civil Twilight 4:46 AM MST 8:01 PM MST
Nautical Twilight 4:11 AM MST 8:36 PM MST
Astronomical Twilight 3:32 AM MST 9:15 PM MST
Moon 9:24 PM MST (5/26) 6:48 AM MST (5/26)
Length of Visible Light 15h 14m
Length of Day
14h 16m
Waning Gibbous, 96% of the Moon is Illuminated
May 26
Waning Gibbous
May 31
Last Quarter
Jun 8
New
Jun 16
First Quarter
Jun 23
Full

Hourly Weather History & Observations

Time (MST) Temp. Windchill Dew Point Humidity Pressure Visibility Wind Dir Wind Speed Gust Speed Precip Events Conditions
12:57 AM 46.0 °F - 14.0 °F 28% 29.91 in 10.0 mi Calm Calm - N/A   Clear
1:57 AM 46.9 °F - 16.0 °F 29% 29.89 in 10.0 mi West 4.6 mph - N/A   Clear
2:57 AM 46.0 °F 44.8 °F 17.1 °F 31% 29.89 in 10.0 mi WSW 3.5 mph - N/A   Clear
3:57 AM 43.0 °F - 16.0 °F 34% 29.90 in 10.0 mi Calm Calm - N/A   Clear
4:57 AM 39.9 °F - 16.0 °F 38% 29.91 in 10.0 mi Calm Calm - N/A   Clear
5:57 AM 37.9 °F - 16.0 °F 41% 29.94 in 10.0 mi Calm Calm - N/A   Clear
6:57 AM 46.0 °F - 19.9 °F 35% 29.93 in 10.0 mi Calm Calm - N/A   Clear
7:57 AM 57.0 °F - 16.0 °F 20% 29.92 in 10.0 mi SW 15.0 mph 20.7 mph N/A   Clear
8:57 AM 60.1 °F - 14.0 °F 16% 29.93 in 10.0 mi SW 17.3 mph 24.2 mph N/A   Clear
9:57 AM 63.0 °F - 12.0 °F 14% 29.95 in 10.0 mi SSW 19.6 mph 25.3 mph N/A   Clear
10:57 AM 64.0 °F - 12.0 °F 13% 29.96 in 10.0 mi SW 15.0 mph 27.6 mph N/A   Clear
11:57 AM 66.0 °F - 12.9 °F 13% 29.96 in 10.0 mi SSW 16.1 mph 27.6 mph N/A   Clear
12:57 PM 69.1 °F - 12.0 °F 11% 29.94 in 10.0 mi SSW 20.7 mph 29.9 mph N/A   Clear
1:57 PM 69.1 °F - 12.9 °F 11% 29.93 in 10.0 mi SW 15.0 mph 27.6 mph N/A   Clear
2:57 PM 70.0 °F - 12.0 °F 11% 29.92 in 10.0 mi SSW 23.0 mph 29.9 mph N/A   Clear
3:57 PM 70.0 °F - 10.9 °F 10% 29.91 in 10.0 mi SW 19.6 mph 31.1 mph N/A   Clear
4:57 PM 69.1 °F - 10.9 °F 11% 29.91 in 10.0 mi SSW 16.1 mph 25.3 mph N/A   Clear
5:57 PM 66.9 °F - 12.0 °F 12% 29.92 in 10.0 mi SSW 19.6 mph 26.5 mph N/A   Clear
6:57 PM 63.0 °F - 12.0 °F 14% 29.91 in 10.0 mi SW 17.3 mph 25.3 mph N/A   Clear
7:57 PM 60.1 °F - 12.0 °F 15% 29.90 in 10.0 mi SW 16.1 mph 21.9 mph N/A   Clear
8:57 PM 57.9 °F - 12.0 °F 16% 29.91 in 10.0 mi WSW 9.2 mph - N/A   Clear
9:57 PM 55.0 °F - 12.0 °F 18% 29.91 in 10.0 mi WSW 10.4 mph - N/A   Clear
10:57 PM 53.1 °F - 12.0 °F 20% 29.91 in 10.0 mi West 8.1 mph - N/A   Clear
11:57 PM 51.1 °F - 12.0 °F 21% 29.90 in 10.0 mi West 5.8 mph - N/A   Clear